HAWK-7C

Last updated on Sun Jun 21 2026 00:03:43 GMT+0000 (Coordinated Universal Time)

1 56200U 23054Y 26171.45139705 .00004491 00000+0 17017-3 0 9994 2 56200 97.2698 57.7382 0003502 54.1888 305.9677 15.27388086177529
UTC large
Height (km)
Speed (km/s)
/
Latitude / Longitude
Inclination (degrees)
Orbital Period (minutes)
Azimuth
Elevation
Range (km)
Doppler Factor

Next 0 passes for location: London (51.5072 / 0.1276)

No passes found over London.
HAWK-7C